STARLINK-3059, 49181

Orbit data source: Space-Track

STARLINK-3059, 49181 is a payload satellite owned by SpaceX/Seattle (US) in LEO that was launched on Tue, 14 Sep 2021 UTC via an FALCON 9 launch vehicle from the Air Force Western Test Range (AFWTR). Payload-class satellites include a variety of spacecraft equipped with specific instruments for various scientific and technological missions. These include communications satellites like Starlink; space stations such as the ISS; scientific satellites like the Hubble; Earth observation satellites from companies like Planet Labs, Umbra, and HawkEye 360; GPS; miniature CubeSats for education and research; and military/defense satellites.

Loading next visibility...
Identifier
49181, 2021-082BD
Orbit
LEO
Country
Flag of USUS
Related business
Manufacturer
SpaceX/Seattle
Mission
Operational Commercial Communications
Bus & Motor
STARLINK, Unknown motor
Mass
297 kg wet, ~275 kg dry
Launch date (UTC)
2021-09-14 (4 years ago)
Launch vehicle
FALCON 9
Launch site
Air Force Western Test Range (AFWTR)
Object type
Payload
Rocket body
Debris
Shape & HBR
Box + 1 Pan, 10.1 m
Radar Cross Section
13.562 m², Large (>1 m²)

Expand to show TLE details & history
Last TLE update: 17 hours ago

TLE from 17 hours ago
0 STARLINK-3059
1 49181U 21082BD  26071.73902778  .00000634  00000-0  60958-4 0  9990
2 49181  69.9982 286.7685 0002559 271.9657  88.1209 14.98331565247622
Epoch: 2026-03-12T17:44Z
TLE epoch observation values (Epoch: 2026-03-12T17:44:12.000Z)
Latitude
-0°
Longitude
-149.6661°
Altitude
574.417 km
Speed
7.574 km/s
True Right ascension
19h 07m 04s
True Declination
0° 00' 00"
Sunlit
Object was in daylight at epoch
Visualization orbit readout
Latitude
Unknown
Longitude
Unknown
Altitude
Unknown
Speed
Unknown
Apparent Right ascension
Unknown
Apparent Declination
Unknown
Sunlit
N/A
Visualization observer readout
Local Sidereal Time
15:04:35
Azimuth
Unknown
Elevation
Unknown
Doppler factor
Unknown
Orbital elements
Apogee altitude
571.778 km
Perigee altitude
568.221 km
Semi-major axis
6,948.136 km
Eccentricity
0.00026
Inclination
69.9982°
RAAN
286.7685°
Arg. of periapsis
271.9657°
True anomaly
88.15021°
Mean anomaly
88.1209°
Eccentric anomaly
88.13555°
Mean motion
3.74749 °/min
Orbital period
96.06 mins
BSTAR
0.000060958
Loading maneuver chart data...
Computing Atmospheric mass density...

Documentation

Showing up to 5 results
|